Time,TemperatureF,DewpointF,PressureIn,WindDirection,WindDirectionDegrees,WindSpeedMPH,WindSpeedGustMPH,Humidity,HourlyPrecipIn,Conditions,Clouds,dailyrainin,SoftwareType,DateUTC
2013-02-19 00:01:00,29.0,12.0,-100.00,NNW,335,4.0,7.0,48,0.00,,,-99.99,,2013-02-19 07:01:00,
2013-02-19 00:11:00,28.0,12.0,-100.00,NNW,340,3.0,6.0,49,0.00,,,-99.99,,2013-02-19 07:11:00,
2013-02-19 00:21:00,28.0,12.0,-100.00,NNW,340,5.0,7.0,49,0.00,,,-99.99,,2013-02-19 07:21:00,
2013-02-19 00:32:00,28.0,12.0,-100.00,North,355,6.0,8.0,50,0.00,,,-99.99,,2013-02-19 07:32:00,
2013-02-19 00:42:00,28.0,12.0,-100.00,North,355,6.0,8.0,50,0.00,,,-99.99,,2013-02-19 07:42:00,
2013-02-19 00:51:00,28.0,12.0,-100.00,NNW,340,6.0,9.0,50,0.00,,,-99.99,,2013-02-19 07:51:00,
2013-02-19 01:01:00,28.0,12.0,-100.00,North,0,5.0,8.0,51,0.00,,,-99.99,,2013-02-19 08:01:00,
2013-02-19 01:11:00,28.0,12.0,-100.00,North,5,4.0,7.0,51,0.00,,,-99.99,,2013-02-19 08:11:00,
2013-02-19 01:21:00,27.0,12.0,-100.00,NNW,345,7.0,9.0,51,0.00,,,-99.99,,2013-02-19 08:21:00,
2013-02-19 01:31:00,28.0,12.0,-100.00,North,0,6.0,11.0,52,0.00,,,-99.99,,2013-02-19 08:31:00,
2013-02-19 01:42:00,28.0,12.0,-100.00,North,0,6.0,11.0,52,0.00,,,-99.99,,2013-02-19 08:42:00,
2013-02-19 01:52:00,27.0,12.0,-100.00,North,0,7.0,12.0,52,0.00,,,-99.99,,2013-02-19 08:52:00,
2013-02-19 02:01:00,27.0,12.0,-100.00,North,0,7.0,12.0,52,0.00,,,-99.99,,2013-02-19 09:01:00,
2013-02-19 02:11:00,27.0,12.0,-100.00,North,10,6.0,11.0,51,0.00,,,-99.99,,2013-02-19 09:11:00,
2013-02-19 02:21:00,27.0,12.0,-100.00,North,0,5.0,9.0,51,0.00,,,-99.99,,2013-02-19 09:21:00,
2013-02-19 02:31:00,27.0,11.0,-100.00,North,5,5.0,9.0,52,0.00,,,-99.99,,2013-02-19 09:31:00,
2013-02-19 02:41:00,27.0,11.0,-100.00,North,5,5.0,9.0,52,0.00,,,-99.99,,2013-02-19 09:41:00,
2013-02-19 02:52:00,26.0,12.0,-100.00,NW,325,9.0,11.0,54,0.00,,,-99.99,,2013-02-19 09:52:00,
2013-02-19 03:01:00,26.0,12.0,-100.00,NNW,330,9.0,11.0,54,0.00,,,-99.99,,2013-02-19 10:01:00,
2013-02-19 03:11:00,26.0,12.0,-100.00,NNW,340,6.0,9.0,55,0.00,,,-99.99,,2013-02-19 10:11:00,
2013-02-19 03:21:00,26.0,12.0,-100.00,NNW,335,7.0,9.0,55,0.00,,,-99.99,,2013-02-19 10:21:00,
2013-02-19 03:31:00,25.0,11.0,-100.00,NNW,330,7.0,9.0,55,0.00,,,-99.99,,2013-02-19 10:31:00,
2013-02-19 03:41:00,25.0,11.0,-100.00,NNW,330,7.0,9.0,55,0.00,,,-99.99,,2013-02-19 10:41:00,
2013-02-19 03:51:00,25.0,11.0,-100.00,NNW,335,6.0,9.0,55,0.00,,,-99.99,,2013-02-19 10:51:00,
2013-02-19 04:01:00,25.0,11.0,-100.00,NNW,330,6.0,9.0,55,0.00,,,-99.99,,2013-02-19 11:01:00,
2013-02-19 04:11:00,25.0,11.0,-100.00,North,355,6.0,9.0,55,0.00,,,-99.99,,2013-02-19 11:11:00,
2013-02-19 04:21:00,25.0,11.0,-100.00,North,0,4.0,9.0,55,0.00,,,-99.99,,2013-02-19 11:21:00,
2013-02-19 04:32:00,24.0,11.0,-100.00,North,0,6.0,11.0,55,0.00,,,-99.99,,2013-02-19 11:32:00,
2013-02-19 04:42:00,24.0,11.0,-100.00,North,0,7.0,11.0,55,0.00,,,-99.99,,2013-02-19 11:42:00,
2013-02-19 04:52:00,25.0,11.0,-100.00,North,0,6.0,12.0,55,0.00,,,-99.99,,2013-02-19 11:52:00,
2013-02-19 05:01:00,25.0,11.0,-100.00,NNW,345,6.0,11.0,55,0.00,,,-99.99,,2013-02-19 12:01:00,
2013-02-19 05:12:00,25.0,11.0,-100.00,NNW,335,11.0,12.0,56,0.00,,,-99.99,,2013-02-19 12:12:00,
2013-02-19 05:21:00,24.0,11.0,-100.00,NNW,330,9.0,14.0,55,0.00,,,-99.99,,2013-02-19 12:21:00,
2013-02-19 05:32:00,24.0,11.0,-100.00,NNW,330,9.0,11.0,56,0.00,,,-99.99,,2013-02-19 12:32:00,
2013-02-19 05:42:00,24.0,11.0,-100.00,NW,325,11.0,13.0,56,0.00,,,-99.99,,2013-02-19 12:42:00,
2013-02-19 05:52:00,24.0,10.0,-100.00,NNW,335,6.0,11.0,56,0.00,,,-99.99,,2013-02-19 12:52:00,
2013-02-19 06:01:00,24.0,11.0,-100.00,NNW,330,7.0,10.0,57,0.00,,,-99.99,,2013-02-19 13:01:00,
2013-02-19 06:11:00,23.0,11.0,-100.00,NNW,340,7.0,11.0,57,0.00,,,-99.99,,2013-02-19 13:11:00,
2013-02-19 06:22:00,23.0,11.0,-100.00,NNW,330,7.0,10.0,58,0.00,,,-99.99,,2013-02-19 13:22:00,
2013-02-19 06:31:00,23.0,11.0,-100.00,NNW,330,7.0,11.0,58,0.00,,,-99.99,,2013-02-19 13:31:00,
2013-02-19 06:41:00,23.0,11.0,-100.00,NNW,345,7.0,9.0,58,0.00,,,-99.99,,2013-02-19 13:41:00,
2013-02-19 06:52:00,23.0,10.0,-100.00,NNW,345,8.0,11.0,58,0.00,,,-99.99,,2013-02-19 13:52:00,
2013-02-19 07:01:00,22.0,10.0,-100.00,NNW,335,7.0,11.0,58,0.00,,,-99.99,,2013-02-19 14:01:00,
2013-02-19 07:11:00,23.0,11.0,-100.00,NNW,330,10.0,14.0,58,0.00,,,-99.99,,2013-02-19 14:11:00,
2013-02-19 07:21:00,23.0,11.0,-100.00,NNW,345,10.0,13.0,58,0.00,,,-99.99,,2013-02-19 14:21:00,
2013-02-19 07:32:00,23.0,11.0,-100.00,NNW,335,11.0,20.0,58,0.00,,,-99.99,,2013-02-19 14:32:00,
2013-02-19 07:41:00,23.0,11.0,-100.00,North,5,9.0,15.0,58,0.00,,,-99.99,,2013-02-19 14:41:00,
2013-02-19 07:52:00,23.0,11.0,-100.00,NNW,340,9.0,14.0,58,0.00,,,-99.99,,2013-02-19 14:52:00,
2013-02-19 08:01:00,23.0,10.0,-100.00,North,355,7.0,15.0,57,0.00,,,-99.99,,2013-02-19 15:01:00,
2013-02-19 08:11:00,23.0,10.0,-100.00,NNW,345,10.0,16.0,58,0.00,,,-99.99,,2013-02-19 15:11:00,
2013-02-19 08:21:00,23.0,10.0,-100.00,North,355,9.0,17.0,57,0.00,,,-99.99,,2013-02-19 15:21:00,
2013-02-19 08:31:00,24.0,11.0,-100.00,North,355,10.0,18.0,57,0.00,,,-99.99,,2013-02-19 15:31:00,
2013-02-19 08:42:00,24.0,11.0,-100.00,NNW,345,11.0,17.0,56,0.00,,,-99.99,,2013-02-19 15:42:00,
2013-02-19 08:52:00,25.0,11.0,-100.00,North,0,9.0,17.0,55,0.00,,,-99.99,,2013-02-19 15:52:00,
2013-02-19 09:01:00,26.0,12.0,-100.00,North,0,8.0,15.0,54,0.00,,,-99.99,,2013-02-19 16:01:00,
2013-02-19 09:11:00,27.0,12.0,-100.00,North,355,8.0,12.0,52,0.00,,,-99.99,,2013-02-19 16:11:00,
2013-02-19 09:21:00,28.0,12.0,-100.00,North,5,9.0,13.0,51,0.00,,,-99.99,,2013-02-19 16:21:00,
2013-02-19 09:31:00,28.0,12.0,-100.00,North,0,9.0,17.0,50,0.00,,,-99.99,,2013-02-19 16:31:00,
2013-02-19 09:41:00,29.0,12.0,-100.00,North,0,11.0,17.0,49,0.00,,,-99.99,,2013-02-19 16:41:00,
2013-02-19 09:51:00,29.0,12.0,-100.00,North,0,11.0,17.0,49,0.00,,,-99.99,,2013-02-19 16:51:00,
2013-02-19 10:01:00,30.0,13.0,-100.00,North,10,11.0,16.0,48,0.00,,,-99.99,,2013-02-19 17:01:00,
2013-02-19 10:11:00,30.0,13.0,-100.00,North,0,11.0,17.0,48,0.00,,,-99.99,,2013-02-19 17:11:00,
2013-02-19 10:21:00,31.0,13.0,-100.00,North,0,9.0,17.0,47,0.00,,,-99.99,,2013-02-19 17:21:00,
2013-02-19 10:32:00,32.0,14.0,-100.00,North,0,9.0,17.0,46,0.00,,,-99.99,,2013-02-19 17:32:00,
2013-02-19 10:41:00,33.0,14.0,-100.00,North,0,9.0,13.0,44,0.00,,,-99.99,,2013-02-19 17:41:00,
2013-02-19 10:52:00,34.0,15.0,-100.00,North,0,8.0,13.0,43,0.00,,,-99.99,,2013-02-19 17:52:00,
2013-02-19 11:01:00,35.0,14.0,-100.00,North,5,10.0,14.0,42,0.00,,,-99.99,,2013-02-19 18:01:00,
2013-02-19 11:11:00,36.0,15.0,-100.00,North,0,9.0,14.0,41,0.00,,,-99.99,,2013-02-19 18:11:00,
2013-02-19 11:21:00,37.0,15.0,-100.00,North,0,7.0,14.0,40,0.00,,,-99.99,,2013-02-19 18:21:00,
2013-02-19 11:31:00,37.0,15.0,-100.00,NNW,345,9.0,14.0,40,0.00,,,-99.99,,2013-02-19 18:31:00,
2013-02-19 11:41:00,38.0,15.0,-100.00,North,0,7.0,13.0,39,0.00,,,-99.99,,2013-02-19 18:41:00,
2013-02-19 11:51:00,39.0,15.0,-100.00,North,0,9.0,14.0,37,0.00,,,-99.99,,2013-02-19 18:51:00,
2013-02-19 12:01:00,40.0,16.0,-100.00,NNE,25,6.0,14.0,37,0.00,,,-99.99,,2013-02-19 19:01:00,
2013-02-19 12:11:00,40.0,15.0,-100.00,North,0,9.0,17.0,36,0.00,,,-99.99,,2013-02-19 19:11:00,
2013-02-19 12:21:00,41.0,16.0,-100.00,North,0,9.0,13.0,35,0.00,,,-99.99,,2013-02-19 19:21:00,
2013-02-19 12:31:00,42.0,16.0,-100.00,North,0,7.0,13.0,34,0.00,,,-99.99,,2013-02-19 19:31:00,
2013-02-19 12:41:00,43.0,17.0,-100.00,North,0,7.0,12.0,34,0.00,,,-99.99,,2013-02-19 19:41:00,
2013-02-19 12:51:00,44.0,17.0,-100.00,North,0,7.0,12.0,33,0.00,,,-99.99,,2013-02-19 19:51:00,
2013-02-19 13:01:00,44.0,17.0,-100.00,NNW,340,7.0,14.0,33,0.00,,,-99.99,,2013-02-19 20:01:00,
2013-02-19 13:11:00,45.0,17.0,-100.00,North,0,9.0,14.0,31,0.00,,,-99.99,,2013-02-19 20:11:00,
2013-02-19 13:21:00,45.0,16.0,-100.00,North,0,6.0,13.0,31,0.00,,,-99.99,,2013-02-19 20:21:00,
2013-02-19 13:31:00,45.0,17.0,-100.00,NNW,330,7.0,12.0,31,0.00,,,-99.99,,2013-02-19 20:31:00,
2013-02-19 13:41:00,46.0,17.0,-100.00,NNW,345,7.0,13.0,31,0.00,,,-99.99,,2013-02-19 20:41:00,
2013-02-19 13:52:00,47.0,18.0,-100.00,NW,315,9.0,13.0,30,0.00,,,-99.99,,2013-02-19 20:52:00,
2013-02-19 14:01:00,47.0,17.0,-100.00,NNW,330,9.0,12.0,30,0.00,,,-99.99,,2013-02-19 21:01:00,
2013-02-19 14:11:00,47.0,18.0,-100.00,NW,320,10.0,12.0,30,0.00,,,-99.99,,2013-02-19 21:11:00,
2013-02-19 14:21:00,48.0,18.0,-100.00,North,0,6.0,12.0,29,0.00,,,-99.99,,2013-02-19 21:21:00,
2013-02-19 14:31:00,48.0,18.0,-100.00,North,0,6.0,11.0,29,0.00,,,-99.99,,2013-02-19 21:31:00,
2013-02-19 14:42:00,49.0,19.0,-100.00,NNW,330,2.0,9.0,29,0.00,,,-99.99,,2013-02-19 21:42:00,
2013-02-19 14:51:00,48.0,17.0,-100.00,NW,325,9.0,11.0,29,0.00,,,-99.99,,2013-02-19 21:51:00,
2013-02-19 15:01:00,48.0,18.0,-100.00,NW,315,7.0,10.0,29,0.00,,,-99.99,,2013-02-19 22:01:00,
2013-02-19 15:11:00,48.0,18.0,-100.00,NW,325,7.0,9.0,29,0.00,,,-99.99,,2013-02-19 22:11:00,
2013-02-19 15:21:00,47.0,17.0,-100.00,NW,315,7.0,9.0,29,0.00,,,-99.99,,2013-02-19 22:21:00,
2013-02-19 15:32:00,47.0,18.0,-100.00,NW,320,7.0,9.0,30,0.00,,,-99.99,,2013-02-19 22:32:00,
2013-02-19 15:41:00,48.0,18.0,-100.00,NW,320,7.0,9.0,30,0.00,,,-99.99,,2013-02-19 22:41:00,
2013-02-19 15:51:00,48.0,18.0,-100.00,NW,320,6.0,8.0,30,0.00,,,-99.99,,2013-02-19 22:51:00,
2013-02-19 16:01:00,48.0,18.0,-100.00,NW,315,7.0,8.0,30,0.00,,,-99.99,,2013-02-19 23:01:00,
2013-02-19 16:11:00,48.0,19.0,-100.00,NW,320,4.0,7.0,30,0.00,,,-99.99,,2013-02-19 23:11:00,
2013-02-19 16:21:00,48.0,18.0,-100.00,NW,325,6.0,9.0,30,0.00,,,-99.99,,2013-02-19 23:21:00,
2013-02-19 16:31:00,48.0,18.0,-100.00,NW,315,3.0,6.0,30,0.00,,,-99.99,,2013-02-19 23:31:00,
2013-02-19 16:41:00,49.0,19.0,-100.00,NW,320,4.0,6.0,29,0.00,,,-99.99,,2013-02-19 23:41:00,
2013-02-19 16:52:00,49.0,19.0,-100.00,NW,320,4.0,6.0,29,0.00,,,-99.99,,2013-02-19 23:52:00,
2013-02-19 17:01:00,48.0,18.0,-100.00,NW,325,4.0,6.0,30,0.00,,,-99.99,,2013-02-20 00:01:00,
2013-02-19 17:11:00,48.0,18.0,-100.00,WNW,285,2.0,6.0,30,0.00,,,-99.99,,2013-02-20 00:11:00,
2013-02-19 17:21:00,48.0,18.0,-100.00,NW,325,4.0,6.0,30,0.00,,,-99.99,,2013-02-20 00:21:00,
2013-02-19 17:31:00,48.0,18.0,-100.00,NNW,335,4.0,6.0,30,0.00,,,-99.99,,2013-02-20 00:31:00,
2013-02-19 17:41:00,47.0,17.0,-100.00,NNW,340,1.0,4.0,30,0.00,,,-99.99,,2013-02-20 00:41:00,
2013-02-19 17:51:00,45.0,16.0,-100.00,NNW,340,0.0,2.0,31,0.00,,,-99.99,,2013-02-20 00:51:00,
2013-02-19 18:02:00,44.0,16.0,-100.00,North,10,2.0,4.0,31,0.00,,,-99.99,,2013-02-20 01:02:00,
2013-02-19 18:11:00,43.0,16.0,-100.00,NNE,30,0.0,3.0,32,0.00,,,-99.99,,2013-02-20 01:11:00,
2013-02-19 18:21:00,42.0,16.0,-100.00,NW,320,2.0,4.0,33,0.00,,,-99.99,,2013-02-20 01:21:00,
2013-02-19 18:31:00,41.0,16.0,-100.00,WNW,300,2.0,3.0,35,0.00,,,-99.99,,2013-02-20 01:31:00,
2013-02-19 18:41:00,40.0,15.0,-100.00,North,0,2.0,3.0,35,0.00,,,-99.99,,2013-02-20 01:41:00,
2013-02-19 18:51:00,40.0,15.0,-100.00,North,0,1.0,4.0,35,0.00,,,-99.99,,2013-02-20 01:51:00,
2013-02-19 19:01:00,40.0,15.0,-100.00,North,355,4.0,6.0,35,0.00,,,-99.99,,2013-02-20 02:01:00,
2013-02-19 19:11:00,41.0,16.0,-100.00,NNW,330,6.0,7.0,35,0.00,,,-99.99,,2013-02-20 02:11:00,
2013-02-19 19:21:00,40.0,16.0,-100.00,North,350,4.0,9.0,36,0.00,,,-99.99,,2013-02-20 02:21:00,
2013-02-19 19:31:00,40.0,16.0,-100.00,NNW,340,7.0,9.0,37,0.00,,,-99.99,,2013-02-20 02:31:00,
2013-02-19 19:41:00,41.0,16.0,-100.00,NNW,330,9.0,11.0,35,0.00,,,-99.99,,2013-02-20 02:41:00,
2013-02-19 19:52:00,39.0,15.0,-100.00,NNW,345,6.0,11.0,37,0.00,,,-99.99,,2013-02-20 02:52:00,
2013-02-19 20:01:00,39.0,16.0,-100.00,NNW,330,11.0,11.0,38,0.00,,,-99.99,,2013-02-20 03:01:00,
2013-02-19 20:12:00,38.0,16.0,-100.00,NNW,345,10.0,12.0,38,0.00,,,-99.99,,2013-02-20 03:12:00,
2013-02-19 20:21:00,38.0,16.0,-100.00,NNW,345,9.0,11.0,40,0.00,,,-99.99,,2013-02-20 03:21:00,
2013-02-19 20:32:00,37.0,15.0,-100.00,North,0,4.0,10.0,40,0.00,,,-99.99,,2013-02-20 03:32:00,
2013-02-19 20:41:00,37.0,16.0,-100.00,NNW,330,7.0,8.0,42,0.00,,,-99.99,,2013-02-20 03:41:00,
2013-02-19 20:51:00,36.0,16.0,-100.00,NNW,340,6.0,9.0,42,0.00,,,-99.99,,2013-02-20 03:51:00,
2013-02-19 21:01:00,36.0,15.0,-100.00,North,350,4.0,7.0,43,0.00,,,-99.99,,2013-02-20 04:01:00,
2013-02-19 21:11:00,35.0,16.0,-100.00,NW,325,4.0,6.0,44,0.00,,,-99.99,,2013-02-20 04:11:00,
2013-02-19 21:21:00,34.0,15.0,-100.00,North,0,4.0,5.0,46,0.00,,,-99.99,,2013-02-20 04:21:00,
2013-02-19 21:31:00,34.0,16.0,-100.00,North,0,2.0,6.0,46,0.00,,,-99.99,,2013-02-20 04:31:00,
2013-02-19 21:41:00,34.0,16.0,-100.00,NNW,335,5.0,7.0,47,0.00,,,-99.99,,2013-02-20 04:41:00,
2013-02-19 21:51:00,34.0,16.0,-100.00,NNW,340,6.0,8.0,48,0.00,,,-99.99,,2013-02-20 04:51:00,
2013-02-19 22:02:00,33.0,16.0,-100.00,North,355,6.0,9.0,49,0.00,,,-99.99,,2013-02-20 05:02:00,
2013-02-19 22:12:00,33.0,17.0,-100.00,NNW,345,7.0,9.0,49,0.00,,,-99.99,,2013-02-20 05:12:00,
2013-02-19 22:22:00,33.0,17.0,-100.00,NW,320,7.0,10.0,50,0.00,,,-99.99,,2013-02-20 05:22:00,
2013-02-19 22:32:00,33.0,17.0,-100.00,NNW,330,9.0,10.0,50,0.00,,,-99.99,,2013-02-20 05:32:00,
2013-02-19 22:42:00,33.0,17.0,-100.00,NNW,345,5.0,11.0,50,0.00,,,-99.99,,2013-02-20 05:42:00,
2013-02-19 22:52:00,34.0,17.0,-100.00,NNW,330,7.0,9.0,50,0.00,,,-99.99,,2013-02-20 05:52:00,
2013-02-19 23:01:00,34.0,17.0,-100.00,NNW,335,6.0,9.0,50,0.00,,,-99.99,,2013-02-20 06:01:00,
2013-02-19 23:11:00,33.0,17.0,-100.00,NNW,335,7.0,9.0,50,0.00,,,-99.99,,2013-02-20 06:11:00,
2013-02-19 23:21:00,34.0,17.0,-100.00,NNW,330,7.0,9.0,50,0.00,,,-99.99,,2013-02-20 06:21:00,
2013-02-19 23:31:00,34.0,17.0,-100.00,NW,325,6.0,9.0,50,0.00,,,-99.99,,2013-02-20 06:31:00,
2013-02-19 23:42:00,33.0,17.0,-100.00,NNW,330,7.0,9.0,51,0.00,,,-99.99,,2013-02-20 06:42:00,
2013-02-19 23:51:00,34.0,17.0,-100.00,NNW,330,7.0,10.0,50,0.00,,,-99.99,,2013-02-20 06:51:00,